Year,Month,Day,Hour,Minute,Value (Times are PST for temperature in C)
2016,06,18,00,00,14.70
2016,06,18,00,01,14.70
2016,06,18,00,02,14.70
2016,06,18,00,03,14.60
2016,06,18,00,04,14.60
2016,06,18,00,05,14.50
2016,06,18,00,06,14.50
2016,06,18,00,07,14.40
2016,06,18,00,08,14.40
2016,06,18,00,09,14.40
2016,06,18,00,10,14.30
2016,06,18,00,11,14.30
2016,06,18,00,12,14.30
2016,06,18,00,13,14.30
2016,06,18,00,14,14.20
2016,06,18,00,15,14.20
2016,06,18,00,16,14.20
2016,06,18,00,17,14.20
2016,06,18,00,18,14.10
2016,06,18,00,19,14.10
2016,06,18,00,20,14.10
2016,06,18,00,21,14.10
2016,06,18,00,22,14.10
2016,06,18,00,23,14.10
2016,06,18,00,24,14.00
2016,06,18,00,25,14.00
2016,06,18,00,26,14.00
2016,06,18,00,27,14.00
2016,06,18,00,28,13.90
2016,06,18,00,29,13.90
2016,06,18,00,30,13.90
2016,06,18,00,31,13.90
2016,06,18,00,32,13.90
2016,06,18,00,33,13.90
2016,06,18,00,34,13.80
2016,06,18,00,35,13.80
2016,06,18,00,36,13.80
2016,06,18,00,37,13.80
2016,06,18,00,38,13.80
2016,06,18,00,39,13.80
2016,06,18,00,40,13.80
2016,06,18,00,41,13.80
2016,06,18,00,42,13.80
2016,06,18,00,43,13.80
2016,06,18,00,44,13.80
2016,06,18,00,45,13.80
2016,06,18,00,46,13.80
2016,06,18,00,47,13.80
2016,06,18,00,48,13.80
2016,06,18,00,49,13.80
2016,06,18,00,50,13.80
2016,06,18,00,51,13.80
2016,06,18,00,52,13.80
2016,06,18,00,53,13.80
2016,06,18,00,54,13.80
2016,06,18,00,55,13.80
2016,06,18,00,56,13.80
2016,06,18,00,57,13.80
2016,06,18,00,58,13.80
2016,06,18,00,59,13.80
2016,06,18,01,00,13.80
2016,06,18,01,01,13.80
2016,06,18,01,02,13.80
2016,06,18,01,03,13.80
2016,06,18,01,04,13.80
2016,06,18,01,05,13.80
2016,06,18,01,06,13.80
2016,06,18,01,07,13.80
2016,06,18,01,08,13.80
2016,06,18,01,09,13.70
2016,06,18,01,10,13.70
2016,06,18,01,11,13.70
2016,06,18,01,12,13.70
2016,06,18,01,13,13.70
2016,06,18,01,14,13.70
2016,06,18,01,15,13.70
2016,06,18,01,16,13.60
2016,06,18,01,17,13.60
2016,06,18,01,18,13.60
2016,06,18,01,19,13.60
2016,06,18,01,20,13.60
2016,06,18,01,21,13.60
2016,06,18,01,22,13.50
2016,06,18,01,23,13.50
2016,06,18,01,24,13.50
2016,06,18,01,25,13.50
2016,06,18,01,26,13.40
2016,06,18,01,27,13.40
2016,06,18,01,28,13.40
2016,06,18,01,29,13.40
2016,06,18,01,30,13.40
2016,06,18,01,31,13.40
2016,06,18,01,32,13.40
2016,06,18,01,33,13.40
2016,06,18,01,34,13.30
2016,06,18,01,35,13.30
2016,06,18,01,36,13.30
2016,06,18,01,37,13.30
2016,06,18,01,38,13.30
2016,06,18,01,39,13.30
2016,06,18,01,40,13.30
2016,06,18,01,41,13.30
2016,06,18,01,42,13.30
2016,06,18,01,43,13.30
2016,06,18,01,44,13.30
2016,06,18,01,45,13.30
2016,06,18,01,46,13.30
2016,06,18,01,47,13.30
2016,06,18,01,48,13.30
2016,06,18,01,49,13.30
2016,06,18,01,50,13.30
2016,06,18,01,51,13.30
2016,06,18,01,52,13.30
2016,06,18,01,53,13.30
2016,06,18,01,54,13.30
2016,06,18,01,55,13.30
2016,06,18,01,56,13.30
2016,06,18,01,57,13.30
2016,06,18,01,58,13.30
2016,06,18,01,59,13.30
2016,06,18,02,00,13.30
2016,06,18,02,01,13.30
2016,06,18,02,02,13.30
2016,06,18,02,03,13.30
2016,06,18,02,04,13.30
2016,06,18,02,05,13.30
2016,06,18,02,06,13.30
2016,06,18,02,07,13.30
2016,06,18,02,08,13.30
2016,06,18,02,09,13.30
2016,06,18,02,10,13.30
2016,06,18,02,11,13.30
2016,06,18,02,12,13.30
2016,06,18,02,13,13.30
2016,06,18,02,14,13.30
2016,06,18,02,15,13.30
2016,06,18,02,16,13.30
2016,06,18,02,17,13.30
2016,06,18,02,18,13.30
2016,06,18,02,19,13.30
2016,06,18,02,20,13.30
2016,06,18,02,21,13.20
2016,06,18,02,22,13.20
2016,06,18,02,23,13.20
2016,06,18,02,24,13.20
2016,06,18,02,25,13.20
2016,06,18,02,26,13.20
2016,06,18,02,27,13.20
2016,06,18,02,28,13.20
2016,06,18,02,29,13.20
2016,06,18,02,30,13.20
2016,06,18,02,31,13.20
2016,06,18,02,32,13.20
2016,06,18,02,33,13.10
2016,06,18,02,34,13.10
2016,06,18,02,35,13.10
2016,06,18,02,36,13.00
2016,06,18,02,37,12.90
2016,06,18,02,38,12.80
2016,06,18,02,39,12.80
2016,06,18,02,40,12.70
2016,06,18,02,41,12.60
2016,06,18,02,42,12.50
2016,06,18,02,43,12.50
2016,06,18,02,44,12.40
2016,06,18,02,45,12.40
2016,06,18,02,46,12.40
2016,06,18,02,47,12.40
2016,06,18,02,48,12.30
2016,06,18,02,49,12.30
2016,06,18,02,50,12.20
2016,06,18,02,51,12.20
2016,06,18,02,52,12.20
2016,06,18,02,53,12.10
2016,06,18,02,54,12.10
2016,06,18,02,55,12.00
2016,06,18,02,56,11.90
2016,06,18,02,57,11.90
2016,06,18,02,58,11.80
2016,06,18,02,59,11.80
2016,06,18,03,00,11.70
2016,06,18,03,01,11.70
2016,06,18,03,02,11.60
2016,06,18,03,06,11.40
2016,06,18,03,07,11.30
2016,06,18,03,08,11.30
2016,06,18,03,09,11.30
2016,06,18,03,10,11.30
2016,06,18,03,11,11.30
2016,06,18,03,12,11.30
2016,06,18,03,13,11.30
2016,06,18,03,14,11.30
2016,06,18,03,15,11.30
2016,06,18,03,16,11.30
2016,06,18,03,17,11.30
2016,06,18,03,18,11.20
2016,06,18,03,19,11.20
2016,06,18,03,20,11.20
2016,06,18,03,21,11.20
2016,06,18,03,22,11.20
2016,06,18,03,23,11.20
2016,06,18,03,24,11.20
2016,06,18,03,25,11.20
2016,06,18,03,26,11.20
2016,06,18,03,27,11.20
2016,06,18,03,28,11.20
2016,06,18,03,29,11.10
2016,06,18,03,30,11.10
2016,06,18,03,31,11.10
2016,06,18,03,32,11.10
2016,06,18,03,33,11.10
2016,06,18,03,34,11.10
2016,06,18,03,35,11.10
2016,06,18,03,36,11.10
2016,06,18,03,37,11.10
2016,06,18,03,38,11.10
2016,06,18,03,39,11.10
2016,06,18,03,40,11.10
2016,06,18,03,41,11.10
2016,06,18,03,42,11.10
2016,06,18,03,43,11.10
2016,06,18,03,44,11.10
2016,06,18,03,45,11.10
2016,06,18,03,46,11.10
2016,06,18,03,47,11.00
2016,06,18,03,48,11.10
2016,06,18,03,49,11.10
2016,06,18,03,50,11.10
2016,06,18,03,51,11.10
2016,06,18,03,52,11.10
2016,06,18,03,53,11.10
2016,06,18,03,54,11.10
2016,06,18,03,55,11.10
2016,06,18,03,56,11.10
2016,06,18,03,57,11.10
2016,06,18,03,58,11.10
2016,06,18,03,59,11.20
2016,06,18,04,00,11.20
2016,06,18,04,01,11.20
2016,06,18,04,02,11.20
2016,06,18,04,03,11.20
2016,06,18,04,04,11.20
2016,06,18,04,05,11.20
2016,06,18,04,06,11.20
2016,06,18,04,07,11.20
2016,06,18,04,08,11.20
2016,06,18,04,09,11.20
2016,06,18,04,10,11.20
2016,06,18,04,11,11.20
2016,06,18,04,12,11.20
2016,06,18,04,13,11.20
2016,06,18,04,14,11.20
2016,06,18,04,15,11.20
2016,06,18,04,16,11.20
2016,06,18,04,17,11.20
2016,06,18,04,18,11.20
2016,06,18,04,19,11.20
2016,06,18,04,20,11.20
2016,06,18,04,21,11.20
2016,06,18,04,22,11.20
2016,06,18,04,23,11.20
2016,06,18,04,24,11.20
2016,06,18,04,25,11.20
2016,06,18,04,26,11.20
2016,06,18,04,27,11.20
2016,06,18,04,28,11.20
2016,06,18,04,29,11.20
2016,06,18,04,30,11.10
2016,06,18,04,31,11.10
2016,06,18,04,32,11.10
2016,06,18,04,33,11.00
2016,06,18,04,34,11.00
2016,06,18,04,35,11.00
2016,06,18,04,36,11.00
2016,06,18,04,37,11.00
2016,06,18,04,38,11.00
2016,06,18,04,39,11.00
2016,06,18,04,40,11.00
2016,06,18,04,41,11.00
2016,06,18,04,42,11.00
2016,06,18,04,43,11.00
2016,06,18,04,44,11.00
2016,06,18,04,45,11.00
2016,06,18,04,46,11.00
2016,06,18,04,47,11.10
2016,06,18,04,48,11.10
2016,06,18,04,49,11.10
2016,06,18,04,50,11.10
2016,06,18,04,51,11.10
2016,06,18,04,52,11.10
2016,06,18,04,53,11.10
2016,06,18,04,54,11.10
2016,06,18,04,55,11.10
2016,06,18,04,56,11.10
2016,06,18,04,57,11.10
2016,06,18,04,58,11.10
2016,06,18,04,59,11.10
2016,06,18,05,00,11.10
2016,06,18,05,01,11.10
2016,06,18,05,02,11.10
2016,06,18,05,03,11.10
2016,06,18,05,04,11.00
2016,06,18,05,05,11.00
2016,06,18,05,06,11.00
2016,06,18,05,07,11.00
2016,06,18,05,08,10.90
2016,06,18,05,09,10.90
2016,06,18,05,10,10.90
2016,06,18,05,11,10.90
2016,06,18,05,12,10.90
2016,06,18,05,13,10.90
2016,06,18,05,14,10.90
2016,06,18,05,15,10.90
2016,06,18,05,16,10.90
2016,06,18,05,17,10.90
2016,06,18,05,18,10.90
2016,06,18,05,19,10.90
2016,06,18,05,20,10.90
2016,06,18,05,21,10.90
2016,06,18,05,22,11.00
2016,06,18,05,23,11.00
2016,06,18,05,24,11.00
2016,06,18,05,25,11.00
2016,06,18,05,26,11.00
2016,06,18,05,27,11.00
2016,06,18,05,28,11.00
2016,06,18,05,29,11.00
2016,06,18,05,30,10.90
2016,06,18,05,31,10.90
2016,06,18,05,32,10.90
2016,06,18,05,33,10.90
2016,06,18,05,34,10.90
2016,06,18,05,35,10.90
2016,06,18,05,36,10.90
2016,06,18,05,37,10.90
2016,06,18,05,38,11.00
2016,06,18,05,39,10.90
2016,06,18,05,40,10.90
2016,06,18,05,41,10.90
2016,06,18,05,42,10.90
2016,06,18,05,43,10.90
2016,06,18,05,44,10.90
2016,06,18,05,45,10.90
2016,06,18,05,46,10.90
2016,06,18,05,47,10.80
2016,06,18,05,48,10.80
2016,06,18,05,49,10.80
2016,06,18,05,50,10.80
2016,06,18,05,51,10.80
2016,06,18,05,52,10.80
2016,06,18,05,53,10.80
2016,06,18,05,54,10.80
2016,06,18,05,55,10.80
2016,06,18,05,56,10.80
2016,06,18,05,57,10.90
2016,06,18,05,58,10.90
2016,06,18,05,59,10.90
2016,06,18,06,00,10.90
2016,06,18,06,01,10.90
2016,06,18,06,02,10.90
2016,06,18,06,03,10.90
2016,06,18,06,04,10.90
2016,06,18,06,05,10.90
2016,06,18,06,06,10.90
2016,06,18,06,07,10.90
2016,06,18,06,08,10.90
2016,06,18,06,09,10.90
2016,06,18,06,10,10.90
2016,06,18,06,11,10.90
2016,06,18,06,12,10.90
2016,06,18,06,13,10.90
2016,06,18,06,14,11.00
2016,06,18,06,15,11.00
2016,06,18,06,16,11.00
2016,06,18,06,17,11.00
2016,06,18,06,18,11.00
2016,06,18,06,19,11.00
2016,06,18,06,20,11.00
2016,06,18,06,21,11.00
2016,06,18,06,22,11.00
2016,06,18,06,23,11.00
2016,06,18,06,24,11.00
2016,06,18,06,25,11.10
2016,06,18,06,26,11.10
2016,06,18,06,27,11.10
2016,06,18,06,28,11.10
2016,06,18,06,29,11.10
2016,06,18,06,30,11.10
2016,06,18,06,31,11.10
2016,06,18,06,32,11.10
2016,06,18,06,33,11.10
2016,06,18,06,34,11.20
2016,06,18,06,35,11.20
2016,06,18,06,36,11.20
2016,06,18,06,37,11.20
2016,06,18,06,38,11.20
2016,06,18,06,39,11.20
2016,06,18,06,40,11.20
2016,06,18,06,41,11.20
2016,06,18,06,42,11.10
2016,06,18,06,43,11.10
2016,06,18,06,44,11.10
2016,06,18,06,45,11.10
2016,06,18,06,46,11.10
2016,06,18,06,47,11.10
2016,06,18,06,48,11.10
2016,06,18,06,49,11.10
2016,06,18,06,50,11.10
2016,06,18,06,51,11.10
2016,06,18,06,52,11.10
2016,06,18,06,53,11.10
2016,06,18,06,54,11.20
2016,06,18,06,55,11.20
2016,06,18,06,56,11.20
2016,06,18,06,57,11.20
2016,06,18,06,58,11.20
2016,06,18,06,59,11.20
2016,06,18,07,00,11.20
2016,06,18,07,01,11.20
2016,06,18,07,02,11.30
2016,06,18,07,03,11.30
2016,06,18,07,04,11.30
2016,06,18,07,05,11.30
2016,06,18,07,06,11.30
2016,06,18,07,07,11.30
2016,06,18,07,08,11.30
2016,06,18,07,09,11.30
2016,06,18,07,10,11.30
2016,06,18,07,11,11.30
2016,06,18,07,12,11.30
2016,06,18,07,13,11.30
2016,06,18,07,14,11.20
2016,06,18,07,15,11.20
2016,06,18,07,16,11.20
2016,06,18,07,17,11.20
2016,06,18,07,18,11.20
2016,06,18,07,19,11.20
2016,06,18,07,20,11.20
2016,06,18,07,21,11.20
2016,06,18,07,22,11.30
2016,06,18,07,23,11.30
2016,06,18,07,24,11.30
2016,06,18,07,25,11.30
2016,06,18,07,26,11.30
2016,06,18,07,27,11.30
2016,06,18,07,28,11.30
2016,06,18,07,29,11.30
2016,06,18,07,30,11.30
2016,06,18,07,31,11.30
2016,06,18,07,32,11.40
2016,06,18,07,33,11.40
2016,06,18,07,34,11.40
2016,06,18,07,35,11.40
2016,06,18,07,36,11.40
2016,06,18,07,37,11.40
2016,06,18,07,38,11.50
2016,06,18,07,39,11.50
2016,06,18,07,40,11.50
2016,06,18,07,41,11.60
2016,06,18,07,42,11.60
2016,06,18,07,43,11.60
2016,06,18,07,44,11.60
2016,06,18,07,45,11.60
2016,06,18,07,46,11.60
2016,06,18,07,47,11.60
2016,06,18,07,48,11.60
2016,06,18,07,49,11.60
2016,06,18,07,50,11.60
2016,06,18,07,51,11.60
2016,06,18,07,52,11.60
2016,06,18,07,53,11.60
2016,06,18,07,54,11.70
2016,06,18,07,55,11.70
2016,06,18,07,56,11.70
2016,06,18,07,57,11.70
2016,06,18,07,58,11.70
2016,06,18,07,59,11.70
2016,06,18,08,00,11.70
2016,06,18,08,01,11.70
2016,06,18,08,02,11.80
2016,06,18,08,03,11.80
2016,06,18,08,04,11.80
2016,06,18,08,05,11.80
2016,06,18,08,06,11.80
2016,06,18,08,07,11.80
2016,06,18,08,08,11.80
2016,06,18,08,09,11.80
2016,06,18,08,10,11.80
2016,06,18,08,11,11.80
2016,06,18,08,12,11.80
2016,06,18,08,13,11.80
2016,06,18,08,14,11.80
2016,06,18,08,15,11.80
2016,06,18,08,16,11.80
2016,06,18,08,17,11.80
2016,06,18,08,18,11.80
2016,06,18,08,19,11.80
2016,06,18,08,20,11.80
2016,06,18,08,21,11.80
2016,06,18,08,22,11.80
2016,06,18,08,23,11.80
2016,06,18,08,24,11.80
2016,06,18,08,25,11.80
2016,06,18,08,26,11.80
2016,06,18,08,27,11.90
2016,06,18,08,28,11.90
2016,06,18,08,29,11.90
2016,06,18,08,30,11.90
2016,06,18,08,31,11.90
2016,06,18,08,32,11.90
2016,06,18,08,33,11.90
2016,06,18,08,34,11.90
2016,06,18,08,35,11.90
2016,06,18,08,36,12.00
2016,06,18,08,37,12.00
2016,06,18,08,38,12.00
2016,06,18,08,39,12.00
2016,06,18,08,40,12.10
2016,06,18,08,41,12.10
2016,06,18,08,42,12.10
2016,06,18,08,43,12.10
2016,06,18,08,44,12.10
2016,06,18,08,45,12.10
2016,06,18,08,46,12.10
2016,06,18,08,47,12.20
2016,06,18,08,48,12.20
2016,06,18,08,49,12.20
2016,06,18,08,50,12.20
2016,06,18,08,51,12.20
2016,06,18,08,52,12.30
2016,06,18,08,53,12.30
2016,06,18,08,54,12.30
2016,06,18,08,55,12.30
2016,06,18,08,56,12.30
2016,06,18,08,57,12.30
2016,06,18,08,58,12.40
2016,06,18,08,59,12.40
2016,06,18,09,00,12.40
2016,06,18,09,01,12.40
2016,06,18,09,02,12.50
2016,06,18,09,03,12.50
2016,06,18,09,04,12.50
2016,06,18,09,05,12.50
2016,06,18,09,06,12.50
2016,06,18,09,07,12.50
2016,06,18,09,08,12.50
2016,06,18,09,09,12.60
2016,06,18,09,10,12.60
2016,06,18,09,11,12.60
2016,06,18,09,12,12.60
2016,06,18,09,13,12.60
2016,06,18,09,14,12.60
2016,06,18,09,15,12.60
2016,06,18,09,16,12.60
2016,06,18,09,17,12.60
2016,06,18,09,18,12.70
2016,06,18,09,19,12.70
2016,06,18,09,20,12.70
2016,06,18,09,21,12.70
2016,06,18,09,22,12.80
2016,06,18,09,23,12.80
2016,06,18,09,24,12.80
2016,06,18,09,25,12.80
2016,06,18,09,26,12.80
2016,06,18,09,27,12.80
2016,06,18,09,28,12.80
2016,06,18,09,29,12.80
2016,06,18,09,30,12.80
2016,06,18,09,31,12.80
2016,06,18,09,32,12.80
2016,06,18,09,33,12.80
2016,06,18,09,34,12.90
2016,06,18,09,35,12.90
2016,06,18,09,36,12.90
2016,06,18,09,37,12.90
2016,06,18,09,38,13.00
2016,06,18,09,39,13.00
2016,06,18,09,40,13.00
2016,06,18,09,41,13.00
2016,06,18,09,42,13.10
2016,06,18,09,43,13.10
2016,06,18,09,44,13.10
2016,06,18,09,45,13.20
2016,06,18,09,46,13.20
2016,06,18,09,47,13.20
2016,06,18,09,48,13.30
2016,06,18,09,49,13.30
2016,06,18,09,50,13.30
2016,06,18,09,51,13.30
2016,06,18,09,52,13.30
2016,06,18,09,53,13.30
2016,06,18,09,54,13.30
2016,06,18,09,55,13.30
2016,06,18,09,56,13.40
2016,06,18,09,57,13.40
2016,06,18,09,58,13.40
2016,06,18,09,59,13.40
2016,06,18,10,00,13.40
2016,06,18,10,01,13.50
2016,06,18,10,02,13.50
2016,06,18,10,03,13.50
2016,06,18,10,04,13.50
2016,06,18,10,05,13.40
2016,06,18,10,06,13.40
2016,06,18,10,07,13.40
2016,06,18,10,08,13.40
2016,06,18,10,09,13.40
2016,06,18,10,10,13.40
2016,06,18,10,11,13.40
2016,06,18,10,12,13.40
2016,06,18,10,13,13.40
2016,06,18,10,14,13.40
2016,06,18,10,15,13.40
2016,06,18,10,16,13.50
2016,06,18,10,17,13.50
2016,06,18,10,18,13.50
2016,06,18,10,19,13.50
2016,06,18,10,20,13.50
2016,06,18,10,21,13.50
2016,06,18,10,22,13.50
2016,06,18,10,23,13.60
2016,06,18,10,24,13.60
2016,06,18,10,25,13.60
2016,06,18,10,26,13.60
2016,06,18,10,27,13.60
2016,06,18,10,28,13.70
2016,06,18,10,29,13.70
2016,06,18,10,30,13.70
2016,06,18,10,31,13.70
2016,06,18,10,32,13.70
2016,06,18,10,33,13.80
2016,06,18,10,34,13.80
2016,06,18,10,35,13.80
2016,06,18,10,36,13.80
2016,06,18,10,37,13.90
2016,06,18,10,38,13.90
2016,06,18,10,39,13.90
2016,06,18,10,40,13.90
2016,06,18,10,41,13.90
2016,06,18,10,42,13.90
2016,06,18,10,43,14.10
2016,06,18,10,44,14.10
2016,06,18,10,45,14.10
2016,06,18,10,46,14.20
2016,06,18,10,47,14.20
2016,06,18,10,48,14.30
2016,06,18,10,49,14.30
2016,06,18,10,50,14.30
2016,06,18,10,51,14.30
2016,06,18,10,52,14.30
2016,06,18,10,53,14.30
2016,06,18,10,54,14.30
2016,06,18,10,55,14.40
2016,06,18,10,56,14.40
2016,06,18,10,57,14.40
2016,06,18,10,58,14.40
2016,06,18,10,59,14.40
2016,06,18,11,00,14.30
2016,06,18,11,01,14.30
2016,06,18,11,02,14.30
2016,06,18,11,03,14.30
2016,06,18,11,04,14.30
2016,06,18,11,05,14.30
2016,06,18,11,06,14.30
2016,06,18,11,07,14.30
2016,06,18,11,08,14.30
2016,06,18,11,09,14.20
2016,06,18,11,10,14.30
2016,06,18,11,11,14.20
2016,06,18,11,12,14.20
2016,06,18,11,13,14.20
2016,06,18,11,14,14.20
2016,06,18,11,15,14.20
2016,06,18,11,16,14.20
2016,06,18,11,17,14.20
2016,06,18,11,18,14.20
2016,06,18,11,19,14.30
2016,06,18,11,20,14.30
2016,06,18,11,21,14.30
2016,06,18,11,22,14.30
2016,06,18,11,23,14.30
2016,06,18,11,24,14.30
2016,06,18,11,25,14.30
2016,06,18,11,26,14.30
2016,06,18,11,27,14.30
2016,06,18,11,28,14.30
2016,06,18,11,29,14.30
2016,06,18,11,30,14.30
2016,06,18,11,31,14.30
2016,06,18,11,32,14.30
2016,06,18,11,33,14.30
2016,06,18,11,34,14.30
2016,06,18,11,35,14.30
2016,06,18,11,36,14.30
2016,06,18,11,37,14.40
2016,06,18,11,38,14.40
2016,06,18,11,39,14.40
2016,06,18,11,40,14.40
2016,06,18,11,41,14.40
2016,06,18,11,42,14.40
2016,06,18,11,43,14.40
2016,06,18,11,44,14.40
2016,06,18,11,45,14.40
2016,06,18,11,46,14.40
2016,06,18,11,47,14.40
2016,06,18,11,48,14.40
2016,06,18,11,49,14.40
2016,06,18,11,50,14.50
2016,06,18,11,51,14.60
2016,06,18,11,52,14.60
2016,06,18,11,53,14.70
2016,06,18,11,54,14.70
2016,06,18,11,55,14.70
2016,06,18,11,56,14.80
2016,06,18,11,57,14.80
2016,06,18,11,58,14.80
2016,06,18,11,59,14.80
2016,06,18,12,00,14.80
2016,06,18,12,01,14.80
2016,06,18,12,02,14.80
2016,06,18,12,03,14.80
2016,06,18,12,04,14.80
2016,06,18,12,05,14.80
2016,06,18,12,06,14.80
2016,06,18,12,07,14.80
2016,06,18,12,08,14.80
2016,06,18,12,09,14.80
2016,06,18,12,10,14.80
2016,06,18,12,11,14.80
2016,06,18,12,12,14.80
2016,06,18,12,13,14.80
2016,06,18,12,14,14.80
2016,06,18,12,15,14.80
2016,06,18,12,16,14.80
2016,06,18,12,17,14.70
2016,06,18,12,18,14.80
2016,06,18,12,19,14.70
2016,06,18,12,20,14.70
2016,06,18,12,21,14.80
2016,06,18,12,22,14.80
2016,06,18,12,23,14.80
2016,06,18,12,24,14.80
2016,06,18,12,25,14.80
2016,06,18,12,26,14.80
2016,06,18,12,27,14.80
2016,06,18,12,28,14.80
2016,06,18,12,29,14.80
2016,06,18,12,30,14.80
2016,06,18,12,31,14.80
2016,06,18,12,32,14.80
2016,06,18,12,33,14.70
2016,06,18,12,34,14.70
2016,06,18,12,35,14.70
2016,06,18,12,36,14.70
2016,06,18,12,37,14.70
2016,06,18,12,38,14.70
2016,06,18,12,39,14.70
2016,06,18,12,40,14.70
2016,06,18,12,41,14.70
2016,06,18,12,42,14.70
2016,06,18,12,43,14.70
2016,06,18,12,44,14.70
2016,06,18,12,45,14.70
2016,06,18,12,46,14.70
2016,06,18,12,47,14.70
2016,06,18,12,48,14.80
2016,06,18,12,49,14.80
2016,06,18,12,50,14.80
2016,06,18,12,51,14.80
2016,06,18,12,52,14.80
2016,06,18,12,53,14.90
2016,06,18,12,54,14.90
2016,06,18,12,55,14.90
2016,06,18,12,56,14.90
2016,06,18,12,57,14.90
2016,06,18,12,58,15.00
2016,06,18,12,59,15.00
2016,06,18,13,00,15.00
2016,06,18,13,01,15.10
2016,06,18,13,02,15.10
2016,06,18,13,03,15.10
2016,06,18,13,04,15.10
2016,06,18,13,05,15.20
2016,06,18,13,06,15.20
2016,06,18,13,07,15.20
2016,06,18,13,08,15.20
2016,06,18,13,09,15.20
2016,06,18,13,10,15.20
2016,06,18,13,11,15.20
2016,06,18,13,12,15.20
2016,06,18,13,13,15.20
2016,06,18,13,14,15.20
2016,06,18,13,15,15.20
2016,06,18,13,16,15.20
2016,06,18,13,17,15.20
2016,06,18,13,18,15.20
2016,06,18,13,19,15.20
2016,06,18,13,20,15.20
2016,06,18,13,21,15.20
2016,06,18,13,22,15.20
2016,06,18,13,23,15.10
2016,06,18,13,24,15.10
2016,06,18,13,25,15.10
2016,06,18,13,26,15.10
2016,06,18,13,27,15.10
2016,06,18,13,28,15.10
2016,06,18,13,29,15.10
2016,06,18,13,30,15.10
2016,06,18,13,31,15.10
2016,06,18,13,32,15.20
2016,06,18,13,33,15.20
2016,06,18,13,34,15.20
2016,06,18,13,35,15.20
2016,06,18,13,36,15.10
2016,06,18,13,37,15.10
2016,06,18,13,38,15.10
2016,06,18,13,39,15.10
2016,06,18,13,40,15.00
2016,06,18,13,41,15.00
2016,06,18,13,42,15.00
2016,06,18,13,43,15.00
2016,06,18,13,44,15.00
2016,06,18,13,45,15.00
2016,06,18,13,46,15.00
2016,06,18,13,47,15.00
2016,06,18,13,48,15.00
2016,06,18,13,49,15.00
2016,06,18,13,50,15.00
2016,06,18,13,51,14.90
2016,06,18,13,52,14.90
2016,06,18,13,53,14.90
2016,06,18,13,54,14.90
2016,06,18,13,55,14.80
2016,06,18,13,56,14.80
2016,06,18,13,57,14.80
2016,06,18,13,58,14.80
2016,06,18,13,59,14.80
2016,06,18,14,00,14.80
2016,06,18,14,01,14.80
2016,06,18,14,02,14.80
2016,06,18,14,03,14.70
2016,06,18,14,04,14.70
2016,06,18,14,05,14.70
2016,06,18,14,06,14.70
2016,06,18,14,07,14.70
2016,06,18,14,08,14.70
2016,06,18,14,09,14.70
2016,06,18,14,10,14.60
2016,06,18,14,11,14.60
2016,06,18,14,12,14.60
2016,06,18,14,13,14.60
2016,06,18,14,14,14.60
2016,06,18,14,15,14.60
2016,06,18,14,16,14.60
2016,06,18,14,17,14.60
2016,06,18,14,18,14.60
2016,06,18,14,19,14.60
2016,06,18,14,20,14.60
2016,06,18,14,21,14.60
2016,06,18,14,22,14.60
2016,06,18,14,23,14.60
2016,06,18,14,24,14.60
2016,06,18,14,25,14.60
2016,06,18,14,26,14.60
2016,06,18,14,27,14.60
2016,06,18,14,28,14.60
2016,06,18,14,29,14.60
2016,06,18,14,30,14.60
2016,06,18,14,31,14.60
2016,06,18,14,32,14.60
2016,06,18,14,33,14.60
2016,06,18,14,34,14.60
2016,06,18,14,35,14.60
2016,06,18,14,36,14.60
2016,06,18,14,37,14.60
2016,06,18,14,38,14.70
2016,06,18,14,39,14.70
2016,06,18,14,40,14.70
2016,06,18,14,41,14.70
2016,06,18,14,42,14.70
2016,06,18,14,43,14.70
2016,06,18,14,44,14.70
2016,06,18,14,45,14.70
2016,06,18,14,46,14.70
2016,06,18,14,47,14.70
2016,06,18,14,48,14.70
2016,06,18,14,49,14.70
2016,06,18,14,50,14.70
2016,06,18,14,51,14.70
2016,06,18,14,52,14.60
2016,06,18,14,53,14.60
2016,06,18,14,54,14.60
2016,06,18,14,55,14.60
2016,06,18,14,56,14.50
2016,06,18,14,57,14.50
2016,06,18,14,58,14.50
2016,06,18,14,59,14.50
2016,06,18,15,00,14.50
2016,06,18,15,01,14.40
2016,06,18,15,02,14.40
2016,06,18,15,03,14.40
2016,06,18,15,04,14.40
2016,06,18,15,05,14.30
2016,06,18,15,06,14.30
2016,06,18,15,07,14.30
2016,06,18,15,08,14.30
2016,06,18,15,09,14.30
2016,06,18,15,10,14.30
2016,06,18,15,11,14.30
2016,06,18,15,12,14.30
2016,06,18,15,13,14.30
2016,06,18,15,14,14.30
2016,06,18,15,15,14.30
2016,06,18,15,16,14.20
2016,06,18,15,17,14.20
2016,06,18,15,18,14.20
2016,06,18,15,19,14.20
2016,06,18,15,20,14.20
2016,06,18,15,21,14.10
2016,06,18,15,22,14.10
2016,06,18,15,23,14.10
2016,06,18,15,24,14.10
2016,06,18,15,25,14.10
2016,06,18,15,26,14.10
2016,06,18,15,27,14.10
2016,06,18,15,28,14.10
2016,06,18,15,29,14.10
2016,06,18,15,30,14.00
2016,06,18,15,31,14.00
2016,06,18,15,32,14.00
2016,06,18,15,33,14.00
2016,06,18,15,34,14.00
2016,06,18,15,35,14.00
2016,06,18,15,36,14.00
2016,06,18,15,37,14.00
2016,06,18,15,38,14.00
2016,06,18,15,39,14.00
2016,06,18,15,40,14.10
2016,06,18,15,41,14.10
2016,06,18,15,42,14.10
2016,06,18,15,43,14.10
2016,06,18,15,44,14.10
2016,06,18,15,45,14.20
2016,06,18,15,46,14.20
2016,06,18,15,47,14.20
2016,06,18,15,48,14.20
2016,06,18,15,49,14.20
2016,06,18,15,50,14.30
2016,06,18,15,51,14.30
2016,06,18,15,52,14.30
2016,06,18,15,53,14.30
2016,06,18,15,54,14.30
2016,06,18,15,55,14.30
2016,06,18,15,56,14.40
2016,06,18,15,57,14.40
2016,06,18,15,58,14.40
2016,06,18,15,59,14.40
2016,06,18,16,00,14.40
2016,06,18,16,01,14.40
2016,06,18,16,02,14.40
2016,06,18,16,03,14.50
2016,06,18,16,04,14.50
2016,06,18,16,05,14.50
2016,06,18,16,06,14.50
2016,06,18,16,07,14.60
2016,06,18,16,08,14.60
2016,06,18,16,09,14.60
2016,06,18,16,10,14.60
2016,06,18,16,11,14.70
2016,06,18,16,12,14.70
2016,06,18,16,13,14.70
2016,06,18,16,14,14.70
2016,06,18,16,15,14.70
2016,06,18,16,16,14.70
2016,06,18,16,17,14.70
2016,06,18,16,18,14.70
2016,06,18,16,19,14.80
2016,06,18,16,20,14.80
2016,06,18,16,21,14.80
2016,06,18,16,22,14.80
2016,06,18,16,23,14.80
2016,06,18,16,24,14.90
2016,06,18,16,25,14.90
2016,06,18,16,26,14.90
2016,06,18,16,27,14.90
2016,06,18,16,28,14.90
2016,06,18,16,29,14.90
2016,06,18,16,30,15.00
2016,06,18,16,31,15.00
2016,06,18,16,32,15.00
2016,06,18,16,33,15.10
2016,06,18,16,34,15.10
2016,06,18,16,35,15.10
2016,06,18,16,36,15.10
2016,06,18,16,37,15.10
2016,06,18,16,38,15.10
2016,06,18,16,39,15.10
2016,06,18,16,40,15.10
2016,06,18,16,41,15.10
2016,06,18,16,42,15.10
2016,06,18,16,43,15.20
2016,06,18,16,44,15.20
2016,06,18,16,45,15.20
2016,06,18,16,46,15.20
2016,06,18,16,47,15.20
2016,06,18,16,48,15.20
2016,06,18,16,49,15.20
2016,06,18,16,50,15.20
2016,06,18,16,51,15.20
2016,06,18,16,52,15.20
2016,06,18,16,53,15.20
2016,06,18,16,54,15.20
2016,06,18,16,55,15.20
2016,06,18,16,56,15.20
2016,06,18,16,57,15.20
2016,06,18,16,58,15.20
2016,06,18,16,59,15.20
2016,06,18,17,00,15.20
2016,06,18,17,01,15.20
2016,06,18,17,02,15.20
2016,06,18,17,03,15.20
2016,06,18,17,04,15.20
2016,06,18,17,05,15.20
2016,06,18,17,06,15.20
2016,06,18,17,07,15.20
2016,06,18,17,08,15.20
2016,06,18,17,09,15.20
2016,06,18,17,10,15.20
2016,06,18,17,11,15.10
2016,06,18,17,12,15.10
2016,06,18,17,13,15.10
2016,06,18,17,14,15.10
2016,06,18,17,15,15.10
2016,06,18,17,16,15.10
2016,06,18,17,17,15.10
2016,06,18,17,18,15.10
2016,06,18,17,19,15.00
2016,06,18,17,20,15.00
2016,06,18,17,21,15.00
2016,06,18,17,22,15.00